This demonstration page uses our WeatherBlox Daily Observations layout. Learn more.

Left ArrowRight Arrow

47.50024, -111.30081

Hourly Observations for January 28, 2020

Temp ( °F °C ) Dew Point ( °F °C ) Humidity (%) Winds ( mph kmh ) Pressure ( in mb ) Visibility ( mi km ) Precip ( " mm )
12:53 am 00:53 Clear 27 -2.8 15 -9.4 61 61 SW 13 20 30.11 1020 10 16 0.00 0.00
1:53 am 01:53 Clear 27 -2.8 14 -10 58 58 SW 14 22 30.08 1019 10 16 0.00 0.00
2:53 am 02:53 Clear 28 -2.2 13 -10.6 53 53 SW 13 20 30.10 1019 10 16 0.00 0.00
3:53 am 03:53 Clear 31 -0.6 13 -10.6 47 47 SW 15 24 30.06 1018 10 16 0.00 0.00
4:53 am 04:53 Clear 32 0 12 -11.1 43 43 SW 16 26 30.05 1018 10 16 0.00 0.00
5:53 am 05:53 Clear 32 0 12 -11.1 43 43 SSW 13 20 30.05 1018 10 16 0.00 0.00
6:53 am 06:53 Mostly Clear 33 0.6 13 -10.6 43 43 SSW 12 19 30.04 1017 10 16 0.00 0.00
7:53 am 07:53 Clear 34 1.1 14 -10 44 44 SSW 12 19 30.04 1017 10 16 0.00 0.00
8:53 am 08:53 Cloudy 37 2.8 17 -8.3 44 44 SSW 15 24 30.02 1017 10 16 0.00 0.00
9:53 am 09:53 Mostly Sunny 39 3.9 18 -7.8 43 43 SSW 16 26 30.00 1016 10 16 0.00 0.00
10:53 am 10:53 Sunny 41 5 19 -7.2 41 41 SSW 16 26 29.99 1016 10 16 0.00 0.00
11:53 am 11:53 Sunny 46 7.8 22 -5.6 38 38 SW 23 37 29.95 1014 10 16 0.00 0.00
12:53 pm 12:53 Mostly Sunny 48 8.9 23 -5 37 37 SW 23 37 29.93 1014 10 16 0.00 0.00
1:53 pm 13:53 Mostly Cloudy 48 8.9 24 -4.4 39 39 SW 24 39 29.93 1014 10 16 0.00 0.00
2:53 pm 14:53 Sunny 46 7.8 24 -4.4 42 42 SW 23 37 29.94 1014 10 16 0.00 0.00
3:53 pm 15:53 Sunny 46 7.8 24 -4.4 42 42 SSW 15 24 29.93 1014 10 16 0.00 0.00
4:53 pm 16:53 Sunny 43 6.1 23 -5 45 45 SW 16 26 29.95 1014 10 16 0.00 0.00
5:53 pm 17:53 Clear 38 3.3 24 -4.4 57 57 SW 10 17 30.00 1016 10 16 0.00 0.00
6:53 pm 18:53 Clear 31 -0.6 21 -6.1 67 67 SW 9 15 30.04 1017 10 16 0.00 0.00
7:53 pm 19:53 Clear 30 -1.1 21 -6.1 69 69 SW 9 15 30.07 1018 10 16 0.00 0.00
8:53 pm 20:53 Clear 29 -1.7 20 -6.7 69 69 SW 10 17 30.08 1019 10 16 0.00 0.00
9:53 pm 21:53 Clear 31 -0.6 22 -5.6 69 69 WSW 12 19 30.09 1019 10 16 0.00 0.00
10:53 pm 22:53 Clear 27 -2.8 20 -6.7 75 75 SW 8 13 30.11 1020 10 16 0.00 0.00
11:53 pm 23:53 Clear 27 -2.8 20 -6.7 75 75 SSW 10 17 30.11 1020 10 16 0.00 0.00

Powered by AerisWeather